Weather History for Laredo, TX

Change the Weather History Date:

Wednesday, November 21, 2012

  Actual Average Record
Temperature  
Mean Temperature 71 °F 64 °F  
Max Temperature 82 °F 74 °F 93 °F (1909)
Min Temperature 60 °F 53 °F 21 °F (1906)
Degree Days  
Heating Degree Days 0 4  
Month to date heating degree days 22 53  
Since 1 July heating degree days 35 65  
Cooling Degree Days 6 3  
Month to date cooling degree days 172 104  
Year to date cooling degree days 5043 4233  
Growing Degree Days 20 (Base 50)    
Moisture  
Dew Point 56 °F    
Average Humidity 63    
Maximum Humidity 93    
Minimum Humidity 34    
Precipitation  
Precipitation 0.00 in 0.04 in 2.06 in (1980)
Month to date precipitation 0.12 0.89  
Year to date precipitation 8.91 19.02  
Sea Level Pressure  
Sea Level Pressure 30.18 in    
Wind  
Wind Speed 8 mph (SE)    
Max Wind Speed 15 mph    
Max Gust Speed 17 mph    
Visibility 10 miles    
Events      
T = Trace of Precipitation, MM = Missing Value Source: NWS Daily Summary

Daily Weather History Graph

Daily Weather History Graph

Search for Another Location

Airport:

Trip Planner

Search our weather history database for the weather conditions in past years. The results will help you decide how hot, cold, wet, or windy it might be!

Date:

Astronomy

Nov. 21, 2012 Rise Set
Actual Time 7:03 AM CST 5:43 PM CST
Civil Twilight 6:38 AM CST 6:08 PM CST
Nautical Twilight 6:10 AM CST 6:37 PM CST
Astronomical Twilight 5:42 AM CST 7:05 PM CST
Moon 1:32 PM CST (11/21) 12:56 AM CST (11/21)
Length of Visible Light 11h 30m
Length of Day
10h 40m
First Quarter, 62% of the Moon is Illuminated
Nov 21
First Quarter
Nov 28
Full
Dec 6
Last Quarter
Dec 13
New
Dec 19
First Quarter

Hourly Weather History & Observations

Time (CST) Temp. Dew Point Humidity Pressure Visibility Wind Dir Wind Speed Gust Speed Precip Events Conditions
12:56 AM 66.9 °F 55.9 °F 68% 30.17 in 10.0 mi SSE 9.2 mph - N/A   Clear
1:56 AM 65.8 °F 56.8 °F 73% 30.17 in 10.0 mi SSE 5.8 mph - N/A   Clear
2:56 AM 63.9 °F 56.8 °F 78% 30.18 in 10.0 mi SSE 6.9 mph - N/A   Clear
3:56 AM 63.0 °F 56.8 °F 80% 30.18 in 10.0 mi SE 5.8 mph - N/A   Clear
4:56 AM 61.9 °F 56.8 °F 84% 30.18 in 10.0 mi SSE 4.6 mph - N/A   Clear
5:56 AM 61.9 °F 57.9 °F 87% 30.19 in 10.0 mi SSE 5.8 mph - N/A   Clear
6:56 AM 59.9 °F 56.8 °F 90% 30.21 in 10.0 mi ESE 4.6 mph - N/A   Clear
7:56 AM 61.9 °F 59.0 °F 90% 30.23 in 8.0 mi ESE 5.8 mph - N/A   Clear
8:56 AM 63.0 °F 59.9 °F 90% 30.24 in 9.0 mi Calm Calm - N/A   Clear
9:56 AM 68.9 °F 61.0 °F 76% 30.25 in 10.0 mi SSE 5.8 mph - N/A   Clear
10:56 AM 72.9 °F 59.9 °F 64% 30.25 in 10.0 mi South 9.2 mph - N/A   Clear
11:56 AM 74.8 °F 57.9 °F 55% 30.22 in 10.0 mi SSE 11.5 mph - N/A   Clear
12:56 PM 77.0 °F 56.8 °F 50% 30.19 in 10.0 mi ESE 6.9 mph - N/A   Clear
1:56 PM 80.6 °F 50.0 °F 34% 30.17 in 10.0 mi SE 12.7 mph - N/A   Clear
2:56 PM 81.9 °F 50.0 °F 33% 30.13 in 10.0 mi ESE 12.7 mph - N/A   Clear
3:56 PM 81.0 °F 50.0 °F 34% 30.12 in 10.0 mi East 6.9 mph - N/A   Clear
4:56 PM 79.9 °F 50.9 °F 36% 30.12 in 10.0 mi ESE 11.5 mph - N/A   Clear
5:56 PM 75.9 °F 50.9 °F 41% 30.13 in 10.0 mi SE 6.9 mph - N/A   Clear
6:56 PM 72.9 °F 52.0 °F 48% 30.15 in 10.0 mi SE 5.8 mph - N/A   Clear
7:56 PM 72.9 °F 54.0 °F 51% 30.17 in 10.0 mi ESE 10.4 mph - N/A   Mostly Cloudy
8:56 PM 70.0 °F 54.0 °F 57% 30.18 in 10.0 mi SE 10.4 mph - N/A   Clear
9:56 PM 68.0 °F 54.9 °F 63% 30.17 in 10.0 mi SE 9.2 mph - N/A   Clear
10:56 PM 68.0 °F 56.8 °F 67% 30.16 in 10.0 mi SE 12.7 mph - N/A   Clear
11:56 PM 68.0 °F 57.9 °F 70% 30.14 in 10.0 mi SSE 11.5 mph - N/A   Clear